Regional Weather Roundup
Issued by NWS Charleston, SC

Current Version | Previous Version | Graphics & Text | Print | Product List | Glossary On
Versions: 1 2 3 4 5 6 7 8 9 10 11 12 13 14 15 16 17 18 19 20 21 22 23 24 25 26 27 28 29 30 31 32 33 34 35 36 37 38 39 40 41 42 43 44 45 46 47 48 49 50
000
ASUS42 KCHS 212010
RWRCHS
REGIONAL WEATHER ROUNDUP
NATIONAL WEATHER SERVICE CHARLESTON SC
300 PM EST SUN DEC 21 2014

NOTE: "FAIR" INDICATES FEW OR NO CLOUDS BELOW 12,000 FEET WITH NO
SIGNIFICANT WEATHER AND/OR OBSTRUCTIONS TO VISIBILITY.

NOT ALL STATIONS ARE QUALITY CONTROLLED BY THE NATIONAL
WEATHER SERVICE. USE DATA WITH CAUTION...ESPECIALLY
DEWPOINT OBSERVATIONS.

SCZ027-030-031-034>040-042>050-212100-
...SOUTHEAST SOUTH CAROLINA...

CITY           SKY/WX    TMP DP  RH WIND       PRES   REMARKS
N CHARLESTON   CLOUDY    50  40  68 N9        30.17R
WATERFRONT PRK NOT AVBL
MOUNT PLEASANT CLOUDY    52  43  71 NE3       30.15S
PINOPOLIS        N/A     52  41  66 NE9       30.10S
MONCKS CORNER  CLOUDY    50  39  66 NE8       30.17R
SUMMERVILLE    DRIZZLE   46  45  93 NE3       30.18S
BEAUFORT MCAS  CLOUDY    48  44  86 NE9       30.14F
BEAUFORT ARPT  CLOUDY    48  46  93 N9        30.13F
HILTON HEAD IS PTSUNNY   50  46  87 N10G16    30.14F
WALTERBORO     DRIZZLE   46 N/A N/A NE3       30.16F
ALLENDALE      CLOUDY    50  43  76 NE5       30.13F

...SOUTHERN MIDLANDS AND PEE DEE...

CITY           SKY/WX    TMP DP  RH WIND       PRES   REMARKS
GEORGETOWN     NOT AVBL
KINGSTREE      NOT AVBL
ORANGEBURG     CLOUDY    52  40  63 NE8       30.15F
BARNWELL       CLOUDY    52  43  71 E10       30.15F
AIKEN          CLOUDY    54  41  62 NE9       30.17F
MANNING        NOT AVBL
COLUMBIA       CLOUDY    55  40  56 NE8       30.16F
SUMTER         NOT AVBL
FLORENCE       CLOUDY    53  39  59 E12       30.18F
MYRTLE BEACH   CLOUDY    52  37  58 NE10      30.19S
N MYRTLE BEACH CLOUDY    51  39  63 NE9       30.18S

$$

GAZ063-065-086>088-099>101-113>116-118-119-134>141-150-212100-
...SOUTHEAST GEORGIA...

CITY           SKY/WX    TMP DP  RH WIND       PRES   REMARKS
SAVANNAH ARPT  CLOUDY    49  45  86 NE10      30.12F
HUNTER AAF     CLOUDY    49  47  93 NE9       30.10F
FORT STEWART   CLOUDY    50  48  92 NE6       30.09
STATESBORO     CLOUDY    48  48 100 NE6       30.12S
SYLVANIA       CLOUDY    49  45  88 E7        30.14S
CLAXTON        CLOUDY    46  46 100 NE7       30.13R FOG

...CSRA...CENTRAL AND FAR SOUTHEAST GEORGIA...

CITY           SKY/WX    TMP DP  RH WIND       PRES   REMARKS
THOMSON        CLOUDY    56  47  72 NE5       30.17F
AUGUSTA-BUSH   CLOUDY    56  41  57 E9        30.14F
AUGUSTA-DANIEL CLOUDY    57  42  57 E7        30.14F
SWAINSBORO     CLOUDY    52  52 100 E5        30.13S
VIDALIA        CLOUDY    50  50 100 NE7       30.11F FOG
EASTMAN        CLOUDY    50  50 100 NE7       30.12F FOG
HAZLEHURST     DRIZZLE   51  51 100 NE7       30.08F
ALMA           CLOUDY    51  49  92 NE7       30.07F
WAYCROSS       CLOUDY    55  55  97 E9        30.07F
JESUP          CLOUDY    54  52  94 E7        30.10S
BAXLEY         CLOUDY    52  50  93 NE5       30.09F
BRUNSWICK      CLOUDY    54  50  87 NE9G16    30.08F
SAINT SIMONS   CLOUDY    55  52  89 NE18G24   30.08F

$$

SCZ027-028-034-036>038-045-046-048>050-GAZ119-141-212100-
...LAKE AND SUPPLEMENTAL COASTAL OBSERVATIONS...

STATION/POSITION TIME  TEMP    WIND        PRES    WAVE   SWELL
                       AIR SEA DIR/SP/G            HT/PER HT/PER/DIR
                 (UTC) (F)     (DEG/KT/KT) (MB)    (FT/S) (FT/S/D)
UPR LAKE MARION  NOT AVBL
WINYAH BAY       1900   48      40/ 10     1021.0F
LAKE MURRAY      1900   53      80/  7/ 10 1021.0F
ACE BASIN NERRS  1900   49      30/  3     1021.0S
FORT PULASKI     2000   49 56   20/ 11/ 13 1020.2F
SAPELO ISLAND    1900   53      30/ 12     1019.0S

$$

ANZ835-935-AMZ111-154-330-350-352-354-370-450-454-472-212100-
...C-MAN AND BUOY OBSERVATIONS...

STATION/POSITION TIME  TEMP    WIND        PRES    WAVE   SWELL
                       AIR SEA DIR/SP/G            HT/PER HT/PER/DIR
                 (UTC) (F)     (DEG/KT/KT) (MB)    (FT/S) (FT/S/D)
BUOY 41004       2000   61 69   40/ 21/ 25 1018.7F   6/ 7   2/17
BUOY 41008       2000   56 59   40/ 19/ 23 1018.2F   5/ 6
FOLLY BEACH CMAN 1900   49      40/ 19/ 20 1021.3F
CAPERS NEARSHORE 1900   49      50/ 21/ 27   N/A
FRIPP NEARSHORE  NOT AVBL


STATION/POSITION TIME  TEMP    WIND        PRES    WAVE   SWELL
                       AIR SEA DIR/SP/G            HT/PER HT/PER/DIR
                 (UTC) (F)     (DEG/KT/KT) (MB)    (FT/S) (FT/S/D)
5E ST. MARYS GA  2000      61                N/A     5/ 5
FRYING PAN BUOY  2000   57 70   40/ 21/ 27 1021.1F   6/ 7
BUOY 41025       2000   53                 1023.5S   3/ 4
CAPE LOOKOUT NC  1900   45      20/ 16/ 20 1023.2F
BUOY 41002       1915   69 71  140/ 16/ 17 1017.8S   7/ 7   3/100/10
BUOY 41010       2000   75 77  190/ 10/ 12 1017.8S   3/10   2/110/10
ST AUGUSTINE FL  2000   63     350/ 10/ 10 1017.2F


$$



USA.gov is the U.S. government's official web portal to all federal, state and local government web resources and services.